�������C�����ː����j�^�v���󋵏��
Date,Time,Cs137(Bq/L),Cs134(Bq/L),�S��(Bq/L)
2018/11/09,00:00,0.15,ND,ND
2018/11/09,00:10,0.15,ND,ND
2018/11/09,00:20,0.18,ND,ND
2018/11/09,00:30,0.14,ND,ND
2018/11/09,00:40,0.15,ND,ND
2018/11/09,00:50,0.19,ND,ND
2018/11/09,01:00,0.17,ND,ND
2018/11/09,01:10,0.16,ND,ND
2018/11/09,01:20,0.14,ND,ND
2018/11/09,01:30,0.14,ND,ND
2018/11/09,01:40,0.14,ND,ND
2018/11/09,01:50,0.12,ND,ND
2018/11/09,02:00,0.099,ND,ND
2018/11/09,02:10,0.13,ND,ND
2018/11/09,02:20,0.14,ND,ND
2018/11/09,02:30,0.14,ND,ND
2018/11/09,02:40,0.12,ND,ND
2018/11/09,02:50,0.12,ND,ND
2018/11/09,03:00,0.14,ND,ND
2018/11/09,03:10,0.15,ND,ND
2018/11/09,03:20,0.17,ND,ND
2018/11/09,03:30,0.18,ND,ND
2018/11/09,03:40,0.17,ND,ND
2018/11/09,03:50,0.17,ND,ND
2018/11/09,04:00,0.20,ND,ND
2018/11/09,04:10,0.20,ND,ND
2018/11/09,04:20,0.18,ND,ND
2018/11/09,04:30,0.18,ND,ND
2018/11/09,04:40,0.15,ND,ND
2018/11/09,04:50,0.15,ND,ND
2018/11/09,05:00,0.17,ND,ND
2018/11/09,05:10,0.15,ND,ND
2018/11/09,05:20,0.15,ND,ND
2018/11/09,05:30,0.15,ND,ND
2018/11/09,05:40,0.15,ND,ND
2018/11/09,05:50,0.15,ND,ND
2018/11/09,06:00,0.15,ND,ND
2018/11/09,06:10,0.15,ND,ND
2018/11/09,06:20,0.17,ND,ND
2018/11/09,06:30,0.15,ND,ND
2018/11/09,06:40,0.18,ND,ND
2018/11/09,06:50,0.17,ND,ND
2018/11/09,07:00,0.18,ND,ND
2018/11/09,07:10,0.20,ND,ND
2018/11/09,07:20,0.19,ND,ND
2018/11/09,07:30,0.18,ND,ND
2018/11/09,07:40,0.17,ND,ND
2018/11/09,07:50,0.17,ND,ND
2018/11/09,08:00,0.16,ND,ND
2018/11/09,08:10,0.15,ND,ND
2018/11/09,08:20,0.15,ND,ND
2018/11/09,08:30,0.15,ND,ND
2018/11/09,08:40,0.15,ND,ND
2018/11/09,08:50,0.16,ND,ND
2018/11/09,09:00,0.15,ND,ND
2018/11/09,09:10,0.15,ND,ND
2018/11/09,09:20,0.18,ND,ND
2018/11/09,09:30,0.17,ND,10
2018/11/09,09:40,0.14,ND,10
2018/11/09,09:50,0.16,ND,9.0
2018/11/09,10:00,0.21,ND,ND
2018/11/09,10:10,0.21,ND,ND
2018/11/09,10:20,0.20,ND,ND
2018/11/09,10:30,0.20,ND,ND
2018/11/09,10:40,0.20,ND,ND
2018/11/09,10:50,0.19,ND,ND
2018/11/09,11:00,0.18,ND,ND
2018/11/09,11:10,0.18,ND,ND
2018/11/09,11:20,0.19,ND,ND
2018/11/09,11:30,0.17,ND,ND
2018/11/09,11:40,0.18,ND,ND
2018/11/09,11:50,0.16,ND,ND
2018/11/09,12:00,0.14,ND,ND
2018/11/09,12:10,0.14,ND,ND
2018/11/09,12:20,0.12,ND,ND
2018/11/09,12:30,0.12,ND,ND
2018/11/09,12:40,0.15,ND,ND
2018/11/09,12:50,0.16,ND,ND
2018/11/09,13:00,0.14,ND,ND
2018/11/09,13:10,0.14,ND,ND
2018/11/09,13:20,0.14,ND,ND
2018/11/09,13:30,0.15,ND,ND
2018/11/09,13:40,0.15,ND,ND
2018/11/09,13:50,0.14,ND,ND
2018/11/09,14:00,0.17,ND,ND
2018/11/09,14:10,0.16,ND,ND
2018/11/09,14:20,0.16,ND,ND
2018/11/09,14:30,0.16,ND,ND
2018/11/09,14:40,0.14,ND,ND
2018/11/09,14:50,0.14,ND,ND
2018/11/09,15:00,0.11,ND,ND
2018/11/09,15:10,0.10,ND,ND
2018/11/09,15:20,0.10,ND,ND
2018/11/09,15:30,0.10,ND,ND
2018/11/09,15:40,0.13,ND,ND
2018/11/09,15:50,0.15,ND,ND
2018/11/09,16:00,0.16,ND,ND
2018/11/09,16:10,0.16,ND,ND
2018/11/09,16:20,0.17,ND,ND
2018/11/09,16:30,0.19,ND,ND
2018/11/09,16:40,0.17,ND,ND
2018/11/09,16:50,0.15,ND,ND
2018/11/09,17:00,0.15,ND,ND
2018/11/09,17:10,0.15,ND,ND
2018/11/09,17:20,0.16,ND,ND
2018/11/09,17:30,0.14,ND,ND
2018/11/09,17:40,0.14,ND,ND
2018/11/09,17:50,0.15,ND,9.0
2018/11/09,18:00,0.14,ND,11
2018/11/09,18:10,0.14,ND,9.5
2018/11/09,18:20,0.13,ND,ND
2018/11/09,18:30,0.14,ND,ND
2018/11/09,18:40,0.13,ND,ND
2018/11/09,18:50,0.13,ND,ND
2018/11/09,19:00,0.14,ND,ND
2018/11/09,19:10,0.12,ND,ND
2018/11/09,19:20,0.12,ND,ND
2018/11/09,19:30,0.12,ND,ND
2018/11/09,19:40,0.092,ND,ND
2018/11/09,19:50,0.098,ND,ND
2018/11/09,20:00,0.11,ND,ND
2018/11/09,20:10,0.11,ND,ND
2018/11/09,20:20,0.10,ND,ND
2018/11/09,20:30,0.12,ND,ND
2018/11/09,20:40,0.17,ND,ND
2018/11/09,20:50,0.15,ND,ND
2018/11/09,21:00,0.15,ND,ND
2018/11/09,21:10,0.15,ND,ND
2018/11/09,21:20,0.15,ND,ND
2018/11/09,21:30,0.16,ND,ND
2018/11/09,21:40,0.13,ND,ND
2018/11/09,21:50,0.14,ND,ND
2018/11/09,22:00,0.15,ND,ND
2018/11/09,22:10,0.17,ND,ND
2018/11/09,22:20,0.18,ND,ND
2018/11/09,22:30,0.18,ND,ND
2018/11/09,22:40,0.21,ND,ND
2018/11/09,22:50,0.21,ND,ND
2018/11/09,23:00,0.20,ND,ND
2018/11/09,23:10,0.19,ND,ND
2018/11/09,23:20,0.20,ND,ND
2018/11/09,23:30,0.18,ND,ND
2018/11/09,23:40,0.17,ND,ND
2018/11/09,23:50,0.17,ND,ND
